[TLELIST] Archives

 

Current TLEs

August 12th 2006 PDT

HST 1 20580U 90037B 06223.85046286 .00000337 00000-0 13388-4 0 6746 2 20580 028.4685 047.0193 0003484 058.2722 301.8201 15.00073828693466 ISS (ZARYA) 1 25544U 98067A 06224.49379535 .00003358 00000-0 24782-4 0 4822 2 25544 051.6312 257.3649 0007610 180.9613 335.8278 15.76462137442040 CXO 1 25867U 99040B 06225.91666667 .00000000 00000-0 00000+0 0 9609 2 25867 060.0065 095.8521 5865940 289.5486 357.4355 00.37805708 1210 ____________________________________________________________________ These 2-Line ...Continue Reading

Current TLEs

August 11th 2006 PDT

HST 1 20580U 90037B 06221.65488401 +.00000336 +00000-0 +13278-4 0 06748 2 20580 028.4682 061.3302 0003383 034.2930 325.7881 15.00073012693135 ISS (ZARYA) 1 25544U 98067A 06223.47652323 .00004896 00000-0 34252-4 0 4762 2 25544 051.6317 262.6090 0007745 177.5668 322.0500 15.76457513441884 CXO 1 25867U 99040B 06223.29166667 .00000000 00000-0 00000+0 0 9591 2 25867 059.9865 095.9684 5860295 289.5090 000.1529 00.37802834 1217 ____________________________________________________________________ These 2-Line ...Continue Reading

Current TLEs

August 10th 2006 PDT

HST 1 20580U 90037B 06221.98754753 .00000332 00000-0 12971-4 0 6734 2 20580 028.4684 059.1610 0003446 038.3686 321.7146 15.00073133693186 ISS (ZARYA) 1 25544U 98067A 06221.86442130 .00011830 00000-0 76916-4 0 4686 2 25544 051.6332 270.9168 0007979 171.1849 173.2120 15.76446519441629 CXO 1 25867U 99040B 06223.29166667 .00000000 00000-0 00000+0 0 9591 2 25867 059.9865 095.9684 5860295 289.5090 000.1529 00.37802834 1217 ____________________________________________________________________ These 2-Line ...Continue Reading

Current TLEs

August 9th 2006 PDT

HST 1 20580U 90037B 06220.65689290 .00000343 00000-0 13851-4 0 6729 2 20580 028.4681 067.8370 0003380 022.7504 337.3222 15.00072701692980 ISS (ZARYA) 1 25544U 98067A 06221.45895833 .00014491 00000-0 93271-4 0 4660 2 25544 051.6328 273.0087 0008174 169.4129 032.3601 15.76444050441567 CXO 1 25867U 99040B 06223.29166667 .00000000 00000-0 00000+0 0 9591 2 25867 059.9865 095.9684 5860295 289.5090 000.1529 00.37802834 1217 ____________________________________________________________________ These 2-Line ...Continue Reading

Current TLEs

August 8th 2006 PDT

HST 1 20580U 90037B 06219.92503249 +.00000350 +00000-0 +14388-4 0 06731 2 20580 028.4680 072.6080 0003287 013.9882 346.0791 15.00072483692871 ISS (ZARYA) 1 25544U 98067A 06219.89907407 +.00014994 +00000-0 +96519-4 0 04606 2 25544 051.6345 281.0465 0007989 163.9119 179.3885 15.76408082441310 CXO 1 25867U 99040B 06220.66666667 .00000000 00000-0 00000+0 0 9583 2 25867 059.9904 096.0328 5847483 289.5389 002.8331 00.37787759 1211 ____________________________________________________________________ These 2-Line ...Continue Reading

Current TLEs

August 7th 2006 PDT

HST 1 20580U 90037B 06218.66091023 +.00000374 +00000-0 +16268-4 0 06716 2 20580 028.4684 080.8490 0003311 359.6606 000.3991 15.00072210692682 ISS (ZARYA) 1 25544U 98067A 06218.95041667 +.00015633 +00000-0 +10055-3 0 04565 2 25544 051.6348 285.9355 0008235 160.4265 195.6115 15.76382904441167 CXO 1 25867U 99040B 06220.66666667 .00000000 00000-0 00000+0 0 9583 2 25867 059.9904 096.0328 5847483 289.5389 002.8331 00.37787759 1211 ____________________________________________________________________ These 2-Line ...Continue Reading

Current TLEs

August 6th 2006 PDT

HST 1 20580U 90037B 06217.99558249 .00000375 00000-0 16390-4 0 6705 2 20580 028.4685 085.1855 0003331 352.9498 007.1048 15.00071932692580 ISS (ZARYA) 1 25544U 98067A 06218.46500443 .00014963 00000-0 96524-4 0 4520 2 25544 051.6339 288.4369 0007665 160.5243 318.9502 15.76364328441095 CXO 1 25867U 99040B 06218.00000000 .00000000 00000-0 00000+0 0 9570 2 25867 059.9963 096.0318 5838238 289.6604 359.7542 00.37785474 1214 ____________________________________________________________________ These 2-Line ...Continue Reading

Current TLEs

August 5th 2006 PDT

HST 1 20580U 90037B 06216.79799271 .00000399 00000-0 18269-4 0 6695 2 20580 028.4681 092.9962 0003318 337.4348 022.6122 15.00071608692404 ISS (ZARYA) 1 25544U 98067A 06217.50720413 .00012666 00000-0 82485-4 0 4467 2 25544 051.6345 293.3728 0008002 155.5943 284.8009 15.76325116440941 CXO 1 25867U 99040B 06218.00000000 .00000000 00000-0 00000+0 0 9570 2 25867 059.9963 096.0318 5838238 289.6604 359.7542 00.37785474 1214 ____________________________________________________________________ These 2-Line ...Continue Reading

Current TLEs

August 4th 2006 PDT

HST 1 20580U 90037B 06214.93507440 +.00000353 +00000-0 +14648-4 0 06837 2 20580 028.4675 105.1423 0003312 316.2708 043.7616 15.00070372692123 ISS (ZARYA) 1 25544U 98067A 06216.49115757 .00012475 00000-0 81399-4 0 4408 2 25544 051.6343 298.6079 0008135 150.8782 279.8368 15.76297350440784 CXO 1 25867U 99040B 06215.33333333 .00000000 00000-0 00000+0 0 9560 2 25867 059.9819 096.0365 5836040 289.7801 356.6435 00.37793982 1215 ____________________________________________________________________ These 2-Line ...Continue Reading

Current TLEs

August 3rd 2006 PDT

HST 1 20580U 90037B 06214.93507440 +.00000353 +00000-0 +14648-4 0 06837 2 20580 028.4675 105.1423 0003312 316.2708 043.7616 15.00070372692123 ISS (ZARYA) 1 25544U 98067A 06215.48347572 .00012734 00000-0 83091-4 0 4340 2 25544 051.6344 303.8010 0008193 146.8831 321.7552 15.76272143440621 CXO 1 25867U 99040B 06215.33333333 .00000000 00000-0 00000+0 0 9560 2 25867 059.9819 096.0365 5836040 289.7801 356.6435 00.37793982 1215 ____________________________________________________________________ These 2-Line ...Continue Reading
  • This mailing list is a public mailing list - anyone may join or leave, at any time.
  • This mailing list is announce-only.

International Space Station (ISS) / Hubble Space Telescope (HST) / Chandra X-Ray Observatory Orbital Data via EMAIL

Privacy Policy:

Private list